GFSMW_con_lsi_000.txt.gz
Lid_Strength_Index
9 8 9 10 11 12 12 12 13 13 12 13 14 15 15 15 15 15 15 15 15 15 16 16 16 16 16 16 15 15 15 16 15 15 15 14 13 13 12 11 10 9 9
10 11 11 11 11 12 13 13 13 13 12 13 14 15 15 15 15 15 15 15 15 15 16 16 16 16 17 16 16 16 16 16 15 16 16 17 15 13 13 13 12 11 9
11 12 12 12 12 13 13 13 13 13 13 14 14 15 16 16 16 16 16 15 15 15 16 16 16 17 16 17 16 16 16 17 16 16 16 18 19 16 14 14 13 13 12
11 11 12 13 12 13 13 13 13 13 13 14 15 16 17 18 17 16 16 16 15 16 16 16 16 17 17 17 17 16 17 17 18 16 14 15 15 17 18 15 14 13 12
11 12 12 12 12 13 13 13 13 13 13 14 15 16 17 17 16 16 17 17 17 16 17 16 17 17 17 17 17 17 17 17 17 17 17 17 16 16 17 18 17 14 13
12 12 12 12 12 13 13 13 13 13 14 14 15 16 16 17 17 18 18 18 18 18 17 17 18 18 18 18 18 17 17 17 17 17 17 17 17 18 18 18 17 17 15
12 12 13 13 13 13 13 13 14 14 14 15 16 16 16 16 17 17 17 18 19 19 19 18 18 19 19 18 18 18 18 18 18 18 17 17 17 16 16 17 18 18 16
12 12 12 13 13 13 14 14 14 14 15 15 16 16 16 15 16 17 17 18 19 19 19 19 19 19 19 19 19 19 18 18 18 18 18 18 17 16 16 17 17 19 18
11 12 12 13 13 13 14 14 14 14 15 15 15 16 16 17 17 18 19 19 19 19 19 20 20 20 20 20 20 19 19 18 18 18 18 18 17 17 17 16 16 17 19
11 12 12 12 13 13 13 14 14 14 15 15 15 16 16 17 18 19 19 20 20 20 20 20 20 20 20 20 20 20 19 19 19 18 19 18 18 18 17 16 16 15 16
12 12 12 12 13 13 14 14 14 15 15 16 16 17 17 18 19 19 20 20 20 21 21 21 21 21 21 21 21 21 21 21 21 20 21 21 20 20 19 19 18 18 17
11 11 12 12 13 13 14 14 14 15 15 16 17 17 18 19 19 20 20 20 21 21 21 22 22 22 22 22 22 22 22 22 23 22 22 22 21 21 20 20 20 20 19
11 11 12 13 13 13 14 15 15 15 15 17 17 18 19 19 20 20 21 21 21 22 22 22 23 23 22 23 22 22 23 23 23 23 22 22 22 22 21 20 20 20 19
11 11 12 13 13 14 14 15 15 15 16 17 17 18 19 19 20 21 21 22 22 22 23 23 23 23 23 23 23 23 23 23 23 22 21 21 21 21 21 20 21 20 20
11 11 12 12 12 14 14 14 14 15 15 17 18 19 20 20 20 21 22 22 23 23 23 23 23 24 24 24 24 23 23 23 22 21 20 20 20 18 18 19 19 18 19
9 9 11 13 13 14 14 15 15 15 16 18 19 19 20 21 21 23 23 23 23 23 23 24 24 24 23 21 20 20 21 21 21 21 20 20 20 19 17 16 15 15 17
9 11 11 12 13 13 14 15 15 15 17 18 19 20 21 22 23 23 23 23 23 23 24 24 24 24 23 21 20 19 20 21 21 21 20 20 19 18 18 16 15 15 14
9 9 11 11 12 13 15 15 15 16 18 19 20 21 22 23 23 23 23 23 23 24 24 24 23 24 23 20 20 19 20 21 21 20 19 19 18 17 16 17 17 16 15
7 8 10 10 11 14 15 16 17 18 19 20 21 21 21 22 23 23 24 23 23 24 23 24 24 25 24 22 20 19 21 21 20 19 18 17 17 16 15 17 18 17 16
9 10 11 11 14 16 16 16 18 19 19 20 20 21 20 22 23 23 23 23 23 24 24 24 24 24 25 22 20 18 21 22 20 19 17 16 16 15 14 16 17 18 17
10 11 12 13 14 16 16 17 19 20 19 19 20 21 21 22 22 24 23 23 23 23 24 24 24 24 23 23 19 18 19 20 19 19 19 18 16 14 14 13 17 17 15
13 13 14 14 16 17 17 18 20 19 20 21 22 22 23 23 23 24 25 25 24 25 25 24 24 21 20 20 19 18 17 16 20 19 18 18 15 15 15 16 15 15 14
12 14 16 17 17 17 17 19 19 20 21 22 24 25 25 25 25 26 26 25 25 24 24 23 23 22 21 20 19 18 17 17 17 18 16 16 16 16 17 17 16 17 18
13 18 18 19 20 20 18 19 20 21 23 24 25 26 26 26 26 25 24 24 24 24 23 23 23 23 22 22 21 20 21 17 17 17 20 19 18 18 18 20 18 17 18
16 17 17 16 16 19 19 20 21 22 23 24 25 26 26 26 25 24 24 23 22 22 23 23 23 24 24 23 18 18 18 18 17 22 24 24 23 22 22 22 20 19 19
12 16 16 16 17 19 19 21 22 23 24 24 26 26 26 25 24 24 24 20 20 18 19 19 21 23 20 18 16 16 15 15 16 27 28 25 24 24 23 23 21 20 20

GFSMW_con_lsi_003.txt.gz
Lid_Strength_Index
9 10 10 10 11 12 13 14 14 13 13 13 14 15 15 16 16 16 15 15 16 15 16 16 16 16 16 16 16 16 16 16 16 16 16 16 15 15 14 14 14 13 11
10 11 11 12 12 14 13 14 14 14 13 13 13 15 15 16 16 16 16 16 16 16 16 16 17 17 17 17 17 16 17 16 16 17 18 18 16 15 14 14 13 13 12
11 12 13 12 13 14 14 14 14 13 13 13 14 16 16 16 17 17 16 16 16 16 16 17 17 17 17 17 17 17 17 18 17 17 17 19 19 17 15 15 14 14 13
11 12 12 14 13 14 14 13 14 14 13 14 14 16 15 16 16 15 16 16 16 16 16 17 17 17 17 17 17 17 17 18 18 17 16 17 17 19 19 16 15 14 14
12 12 12 11 13 14 14 14 14 14 14 14 14 15 16 15 17 17 17 17 17 17 17 17 17 18 18 17 17 18 18 18 18 18 18 18 18 17 18 20 19 16 15
12 12 12 13 14 14 14 14 14 14 14 14 14 15 16 18 18 17 17 17 17 18 18 17 18 18 18 18 18 18 18 18 18 18 18 18 19 19 19 19 19 19 17
13 14 14 13 14 15 14 14 14 14 14 14 15 15 16 17 17 17 17 18 18 19 18 18 18 19 19 18 18 18 19 19 19 19 19 18 18 18 18 19 19 20 18
13 13 13 13 14 14 14 14 14 15 15 15 15 15 16 16 16 16 16 17 17 18 19 19 19 19 19 19 19 19 19 19 19 19 19 19 18 18 17 18 19 20 19
13 13 14 13 14 14 14 14 14 14 15 15 15 16 16 16 17 17 17 17 17 18 19 19 20 20 20 20 20 20 20 19 19 19 19 19 18 17 17 17 18 19 22
12 13 13 14 14 13 14 14 14 14 15 15 15 16 16 16 16 17 18 18 18 19 19 20 20 20 20 20 20 20 20 20 19 19 19 19 19 19 18 18 19 19 20
13 12 12 12 12 13 14 14 14 15 15 15 15 16 16 16 17 17 18 18 19 19 20 20 20 20 20 20 21 21 21 21 22 21 21 20 20 21 21 21 21 21 21
12 12 12 12 14 14 14 15 15 15 15 16 16 16 17 17 18 18 19 19 19 20 20 20 20 21 21 21 22 22 22 22 22 22 22 22 21 23 22 22 22 22 21
12 12 13 13 13 13 14 14 14 15 15 16 17 17 18 18 18 19 20 19 20 20 20 20 21 21 22 22 22 22 22 22 22 22 23 23 23 23 23 23 23 22 21
11 11 11 13 13 14 14 14 15 15 16 16 17 17 17 18 18 20 20 20 20 21 21 21 22 22 22 22 22 22 22 22 22 22 22 23 22 23 23 23 23 22 22
12 11 12 12 13 13 14 15 15 16 16 16 17 17 18 18 19 20 20 21 21 21 21 22 22 22 23 22 22 22 22 22 22 22 22 21 21 20 20 20 21 20 21
10 10 11 12 12 13 13 14 14 16 15 16 16 17 18 20 20 20 21 21 22 22 22 23 23 23 22 19 18 20 21 21 21 21 21 20 20 20 18 17 17 17 19
9 10 11 11 12 13 13 15 15 16 16 16 17 18 19 20 20 20 21 21 22 22 22 22 22 22 21 17 17 17 18 20 20 20 20 20 20 19 19 18 17 16 16
8 10 11 11 12 13 14 14 16 16 16 17 17 19 19 20 21 21 21 21 22 22 22 22 21 21 21 17 16 16 18 19 20 20 20 20 19 18 18 18 18 17 17
7 7 9 10 11 12 13 15 16 16 16 17 18 19 20 21 22 21 21 21 21 22 21 21 22 21 21 16 16 16 18 19 19 19 19 19 18 17 16 17 18 18 18
9 10 10 11 12 13 16 16 16 16 17 17 18 20 20 21 22 21 22 22 22 22 21 22 22 21 23 17 17 16 19 22 20 19 18 17 17 16 16 16 18 20 19
11 12 13 13 14 16 16 16 17 17 16 18 19 20 20 21 21 22 22 23 22 21 22 22 22 23 23 22 17 15 18 20 21 19 19 18 17 16 14 14 17 19 16
10 11 13 14 15 16 17 17 17 18 19 19 21 21 21 22 23 23 24 23 23 23 23 24 23 22 21 20 17 16 15 16 20 21 18 18 16 16 15 16 16 15 16
10 10 12 14 15 17 16 16 18 19 20 21 21 22 23 24 24 24 25 25 24 24 24 23 23 22 20 20 17 16 16 16 18 18 17 17 17 17 18 18 17 18 21
12 10 11 11 11 16 16 15 18 19 20 22 22 23 24 25 25 24 25 24 25 23 23 23 23 22 22 22 21 21 20 17 18 19 23 20 19 19 19 20 20 20 20
12 11 12 13 12 13 15 15 18 19 20 21 23 24 24 25 25 24 24 24 22 21 22 22 21 22 22 22 19 19 20 20 19 28 29 27 23 22 22 22 21 21 21
15 14 13 13 13 12 14 15 18 19 21 22 23 24 25 25 25 25 24 20 20 19 18 18 20 20 18 16 15 16 16 18 18 29 31 28 25 24 24 23 23 22 22

GFSMW_con_lsi_006.txt.gz
Lid_Strength_Index
7 9 10 10 10 11 12 12 13 13 13 14 14 15 14 15 16 16 15 16 16 16 16 16 17 16 17 17 17 17 17 17 17 17 17 17 16 15 15 15 15 14 13
8 11 11 11 11 11 12 13 13 13 13 13 13 14 14 16 15 15 15 15 16 16 16 17 17 17 17 17 17 17 18 17 17 19 19 19 18 15 15 15 15 15 15
8 10 12 12 13 13 13 13 13 13 13 13 14 16 16 17 17 17 17 16 16 16 16 16 17 17 17 18 18 18 18 18 18 18 19 20 20 19 16 16 15 16 16
10 10 12 13 13 13 13 13 13 13 13 13 14 15 14 16 16 16 17 17 16 16 16 17 17 18 18 18 18 17 18 18 19 18 17 18 18 20 20 17 17 16 16
12 12 13 12 13 14 14 14 14 14 14 14 14 15 15 15 17 17 17 17 17 17 17 17 18 18 18 18 17 18 18 18 18 18 18 18 19 19 20 20 19 17 17
12 13 13 13 15 16 15 14 15 14 15 14 14 15 15 17 17 17 17 17 17 18 18 17 18 18 18 18 18 18 18 18 18 18 18 19 19 20 20 20 20 20 18
13 14 14 14 15 16 16 15 15 15 15 15 14 15 15 16 16 17 17 17 18 18 18 18 18 19 19 18 18 19 19 19 19 19 19 19 18 18 19 20 20 21 19
13 13 14 13 14 15 15 15 15 15 15 15 14 15 15 16 16 16 16 17 17 17 17 18 19 19 19 19 19 19 19 19 19 20 19 19 19 18 18 19 20 22 21
13 13 14 14 14 15 14 14 15 14 14 14 14 15 15 16 16 17 16 16 17 18 18 18 19 19 19 19 20 20 20 19 19 19 19 19 19 18 19 19 19 20 23
14 13 14 14 14 14 14 14 14 14 14 15 15 15 15 16 16 17 17 17 18 18 19 19 19 19 20 20 20 20 19 20 19 19 19 19 19 20 20 20 20 20 22
12 13 13 14 14 15 15 14 14 15 15 15 15 15 16 16 17 18 18 18 18 18 18 19 19 20 20 20 20 20 20 20 20 20 20 21 20 21 21 21 21 21 21
12 12 12 13 14 14 14 14 14 14 14 15 15 16 16 17 17 17 18 18 18 19 19 19 19 20 20 20 20 21 20 21 21 21 21 22 21 22 21 21 22 22 21
12 11 11 12 11 12 13 13 14 14 14 15 16 16 17 17 17 17 18 18 18 19 19 19 20 20 20 20 20 21 21 21 21 21 21 22 22 22 22 22 22 22 21
10 10 10 11 11 12 12 13 14 14 15 15 16 17 17 16 16 17 18 18 18 19 19 19 20 21 21 21 21 21 22 22 22 22 21 21 21 21 22 22 22 22 23
10 9 10 10 10 12 12 13 13 14 14 15 16 16 16 16 16 18 18 18 18 19 19 20 21 21 21 21 21 21 22 22 21 21 20 20 20 19 19 21 22 22 23
8 9 10 11 12 12 11 13 13 14 15 15 16 16 17 17 17 18 18 19 19 20 20 20 21 22 21 18 17 20 21 20 20 20 20 19 19 18 17 16 16 17 19
11 12 11 11 11 11 12 13 13 14 16 15 16 17 17 18 19 18 19 19 20 20 21 21 21 21 21 16 15 16 19 19 19 19 19 19 18 18 18 17 16 16 15
11 11 10 10 10 10 11 13 15 16 16 16 17 17 18 19 19 19 19 19 20 21 21 21 21 21 21 15 14 15 17 18 18 18 18 18 18 18 18 18 18 18 17
10 10 10 10 11 12 12 13 17 17 17 17 17 17 18 19 20 20 19 19 20 21 21 20 21 21 21 14 14 14 18 19 19 18 18 18 18 16 15 17 18 18 16
10 10 10 10 11 11 14 16 17 18 17 16 16 18 18 18 19 19 19 20 20 20 21 22 21 21 22 14 13 15 18 20 19 19 18 16 17 15 14 16 17 18 17
12 11 11 11 11 12 14 14 17 18 18 18 20 20 19 19 19 19 19 20 20 21 21 22 22 22 22 18 15 14 19 20 21 20 20 18 16 16 14 13 17 18 17
13 12 13 12 11 11 14 14 15 17 20 19 21 21 20 20 20 21 21 21 21 22 23 24 24 22 22 21 16 15 16 17 21 20 19 18 16 15 15 15 16 15 16
15 13 13 12 12 10 13 15 13 19 21 20 19 20 22 21 21 21 22 23 22 22 24 24 23 23 22 22 17 15 15 16 19 19 17 16 17 17 18 18 17 18 22
16 15 15 15 14 12 12 13 13 17 19 19 20 21 21 22 21 21 22 22 22 22 23 23 23 23 23 22 19 18 17 16 17 18 22 21 20 19 19 21 21 21 21
18 16 18 18 18 16 14 12 12 17 18 19 20 21 21 22 22 21 22 21 21 20 22 21 21 22 23 21 19 19 21 21 20 28 29 27 24 24 23 23 22 21 21
18 19 20 20 19 19 18 17 14 17 17 19 21 21 22 22 22 22 22 18 19 18 17 17 19 19 18 18 17 16 16 16 17 30 31 28 26 25 24 24 23 22 21

GFSMW_con_lsi_009.txt.gz
Lid_Strength_Index
8 7 10 10 11 11 11 11 11 12 12 13 14 13 14 14 15 15 15 15 15 15 16 16 17 17 17 17 17 17 18 18 18 18 18 17 16 16 17 16 16 15 15
9 8 11 11 12 11 11 11 12 12 12 12 12 14 13 16 15 15 15 15 15 16 16 17 17 17 17 17 17 17 18 18 18 19 19 20 18 17 16 17 16 17 16
10 9 12 12 12 13 12 12 12 12 12 12 14 17 17 18 18 17 16 16 16 16 16 17 17 17 17 18 18 18 18 19 18 18 19 21 21 19 17 17 17 17 17
10 10 12 13 13 12 12 12 12 13 12 13 13 15 15 15 15 14 15 16 16 16 17 17 17 17 18 18 18 17 18 18 19 18 17 18 18 20 21 18 18 17 17
11 11 13 12 13 14 14 13 13 13 13 13 13 14 14 14 17 17 17 17 17 17 17 17 18 18 18 18 18 18 18 19 19 19 19 19 19 19 20 21 19 18 18
11 13 13 14 14 16 15 15 14 14 14 14 14 14 14 16 16 17 17 17 17 17 17 17 18 18 18 18 18 18 18 18 19 18 19 19 20 19 20 20 21 20 19
13 11 13 14 15 16 16 15 15 15 15 14 14 14 14 15 16 16 16 17 17 18 18 18 18 18 18 18 18 18 19 19 19 19 19 18 19 18 19 20 21 21 19
12 14 13 14 15 15 16 15 15 15 15 14 14 14 14 15 15 16 16 16 16 16 17 17 18 18 18 18 18 19 19 19 19 19 19 19 19 18 18 19 20 21 21
12 13 13 14 14 16 16 15 15 15 15 15 14 14 15 16 15 16 16 16 16 17 18 17 18 18 18 18 19 19 20 20 19 19 19 20 19 19 19 19 19 20 23
13 12 13 14 14 15 15 15 15 15 15 15 15 15 15 15 15 17 17 17 17 17 18 18 18 18 18 19 19 20 20 20 20 19 20 20 19 19 19 19 19 20 22
11 12 12 13 13 14 15 14 15 15 15 15 15 15 15 15 16 17 16 17 17 18 18 18 18 19 19 19 19 20 20 20 20 20 20 20 20 21 21 20 21 21 21
10 11 11 11 12 13 14 14 14 15 14 15 15 15 15 16 16 16 17 17 17 18 18 18 18 19 19 19 19 20 20 20 21 20 20 21 20 22 22 22 22 22 21
10 10 11 11 11 11 12 13 14 14 14 15 16 16 16 16 16 16 17 17 17 18 18 18 19 19 19 19 19 20 20 20 20 21 21 21 21 22 22 22 22 22 21
12 12 12 12 11 11 11 12 12 13 15 15 16 16 16 16 15 16 17 17 18 18 18 18 18 19 19 20 20 20 20 21 21 21 21 21 21 22 22 22 21 21 22
13 13 13 12 11 12 11 11 11 13 15 15 15 15 15 15 16 16 17 18 18 17 18 19 19 19 19 20 20 20 21 21 22 21 21 21 20 18 19 21 21 21 22
13 13 13 13 13 11 12 12 12 12 15 15 15 14 15 16 16 16 17 18 18 18 18 19 19 19 19 16 16 19 21 21 21 22 21 20 19 18 16 16 16 19 23
12 12 12 12 12 12 11 12 13 13 13 14 14 15 17 16 17 17 18 18 18 18 19 19 19 19 19 15 15 17 20 21 21 21 20 19 19 19 18 16 15 15 14
12 11 11 12 12 11 11 11 12 13 14 14 14 16 16 16 17 18 19 19 18 19 19 19 19 19 19 15 15 16 20 20 20 20 19 19 19 18 19 19 19 18 18
12 13 12 12 11 11 11 12 13 13 14 16 16 17 17 17 19 19 18 18 19 19 19 18 19 19 19 15 14 16 20 19 20 20 19 19 18 17 16 18 20 19 18
13 13 12 12 12 12 11 12 12 13 14 16 15 17 18 19 18 18 19 18 18 18 18 19 19 19 20 15 14 16 19 20 20 19 19 18 18 16 16 18 22 23 19
13 13 14 14 13 12 12 13 12 13 14 17 19 20 20 20 20 18 19 19 19 19 20 20 20 20 19 16 13 14 19 20 20 20 19 19 16 16 15 15 18 18 18
15 15 15 15 15 15 14 14 14 12 13 17 19 20 21 20 20 20 21 19 19 20 21 21 22 21 20 16 13 13 16 16 20 20 19 19 16 15 15 15 16 15 17
15 15 16 17 16 15 16 17 16 15 13 13 16 18 18 20 19 19 20 20 20 21 22 22 22 22 21 18 14 13 15 16 20 19 18 16 16 15 17 18 18 19 23
16 16 17 18 18 17 16 17 16 15 17 15 15 17 19 19 20 20 21 20 21 21 21 22 21 22 21 21 17 16 15 16 18 17 17 17 19 19 20 22 21 22 22
15 16 18 19 19 18 18 18 18 18 19 18 16 17 18 19 20 20 20 20 19 19 20 20 20 22 22 21 18 17 16 17 18 23 23 25 24 24 24 24 24 23 22
15 17 19 20 20 20 20 20 20 21 21 21 19 16 17 19 20 20 21 17 17 17 16 16 18 19 18 17 16 15 15 16 17 23 25 25 24 24 24 25 24 24 23

GFSMW_con_lsi_012.txt.gz
Lid_Strength_Index
9 8 10 11 11 12 11 11 11 10 10 11 12 13 12 13 14 13 13 14 14 15 15 16 16 16 17 17 17 17 18 18 18 18 18 18 17 17 17 17 17 16 16
10 9 11 12 12 11 12 12 11 11 10 10 11 12 11 14 13 14 15 14 15 15 15 16 16 17 18 18 18 17 18 18 18 19 19 20 19 18 17 17 17 17 17
11 10 12 12 13 13 13 12 12 12 11 11 12 16 16 17 16 17 16 16 15 16 16 16 16 17 17 17 18 18 18 18 19 19 18 20 20 20 18 18 18 18 18
12 12 12 13 12 12 13 13 12 13 12 12 13 13 13 14 13 13 14 15 15 16 16 16 16 17 17 18 18 18 18 18 19 18 17 18 19 20 21 19 18 18 18
13 12 12 13 13 13 14 14 13 13 12 12 12 13 13 12 15 15 15 16 16 16 16 16 17 17 17 18 18 18 18 19 19 19 19 19 19 19 20 21 20 19 19
12 12 12 13 14 15 16 15 15 14 14 13 13 13 13 16 16 17 16 16 17 17 17 17 17 17 17 18 18 18 18 19 19 19 19 19 20 20 20 21 20 20 19
13 13 13 13 14 16 16 16 15 15 15 14 14 14 14 16 15 16 15 16 17 17 17 17 17 18 17 18 18 18 18 18 19 19 19 19 19 18 19 20 20 21 19
13 13 13 14 15 16 16 16 16 16 16 15 15 15 15 15 15 16 15 16 16 15 16 17 17 17 18 18 18 18 18 19 18 19 19 19 19 18 18 19 20 21 20
12 13 12 14 14 16 16 16 16 15 16 16 15 16 15 16 15 17 16 16 15 16 17 17 17 18 18 18 18 18 19 19 19 19 19 19 19 19 19 19 19 20 22
9 10 12 13 14 15 15 16 16 15 15 16 15 15 15 15 15 16 16 16 16 16 17 17 17 18 18 18 18 19 19 19 19 19 19 19 19 19 19 18 19 20 22
11 12 12 12 12 13 14 15 15 16 16 16 16 16 16 16 16 16 16 16 16 16 17 17 17 18 18 18 18 18 19 19 20 20 20 20 19 20 20 20 21 21 21
13 12 12 12 12 12 11 12 14 15 15 16 16 16 16 17 17 17 16 16 16 16 16 17 18 18 18 18 18 19 19 19 20 20 20 20 20 21 21 21 22 22 22
13 13 13 13 13 13 12 12 12 13 14 14 16 16 16 17 16 16 16 17 16 16 16 17 17 18 18 18 18 19 19 20 20 20 20 20 21 22 22 22 22 22 22
13 13 13 13 13 13 13 13 13 13 13 14 16 16 16 15 15 15 16 16 16 17 17 17 17 17 18 18 19 19 19 19 20 20 20 21 21 21 22 22 22 22 23
14 13 12 12 13 13 13 13 13 13 13 14 14 14 15 15 15 15 15 16 17 17 17 18 18 18 18 18 19 19 19 20 20 20 20 21 20 19 20 21 22 22 23
14 12 12 13 13 12 13 14 13 13 13 14 14 14 14 16 16 16 16 17 17 17 17 18 18 19 18 16 15 17 19 19 20 21 21 21 20 18 17 17 18 20 24
13 12 13 14 13 13 12 13 13 12 13 13 13 14 14 15 16 17 17 17 17 17 18 18 18 18 18 16 14 15 18 19 20 20 21 21 20 20 19 16 17 17 17
13 13 14 14 13 14 14 13 13 13 13 14 14 14 15 16 16 18 17 17 18 18 18 18 18 18 18 15 14 15 18 19 20 20 21 21 20 20 19 19 18 18 18
11 13 15 14 14 14 15 14 15 14 14 13 14 14 14 15 15 15 16 17 18 18 17 17 17 18 18 15 14 15 19 19 20 20 20 20 20 18 17 20 20 20 19
12 13 13 14 15 15 14 16 17 16 16 15 14 15 16 17 17 16 17 15 16 17 17 17 17 17 18 15 13 15 19 20 20 20 20 18 19 17 16 20 21 22 20
12 13 13 14 13 13 14 15 16 17 16 16 17 15 14 16 16 17 19 18 17 17 18 19 18 18 18 18 13 13 18 19 20 20 20 19 17 16 15 16 19 20 18
13 12 13 14 13 13 14 15 16 16 16 16 15 16 15 15 16 18 19 20 18 18 20 22 22 20 19 17 13 12 17 17 20 20 20 19 16 16 15 15 15 15 19
12 13 15 15 14 15 15 17 16 18 18 18 18 18 17 16 17 17 18 18 19 20 20 21 21 21 20 18 14 12 14 16 19 19 18 17 15 15 14 14 15 18 22
13 13 15 15 16 16 16 17 17 18 20 21 21 20 20 18 15 17 16 18 19 20 20 21 21 21 21 19 17 14 14 16 18 17 18 17 16 15 19 17 17 21 22
13 14 14 15 16 16 17 18 18 19 21 21 22 22 21 20 17 16 16 17 16 17 19 19 19 20 21 20 17 15 16 17 19 18 19 19 20 21 22 23 23 22 22
13 14 15 15 16 17 18 19 19 20 22 23 22 22 21 20 19 17 17 14 14 15 15 14 16 18 17 17 16 14 13 15 16 19 20 22 22 22 24 24 23 23 23

GFSMW_con_lsi_015.txt.gz
Lid_Strength_Index
9 9 10 9 10 10 10 10 10 9 7 7 8 9 9 8 9 9 9 10 10 11 11 12 13 14 14 14 13 13 14 14 14 14 14 14 14 14 14 14 14 14 14
10 10 11 10 11 10 11 11 11 10 9 8 8 8 8 9 9 9 10 10 11 12 12 13 13 14 14 15 14 14 15 15 15 14 14 15 15 14 14 14 14 15 14
11 11 11 11 11 11 11 11 11 11 10 9 9 13 12 13 12 12 12 12 11 12 12 13 14 14 14 15 14 14 14 15 15 15 13 16 15 15 15 15 14 15 15
11 11 12 11 12 11 11 12 11 11 11 10 11 11 11 12 12 11 11 12 12 12 12 13 14 14 14 14 14 14 14 14 15 15 15 15 15 15 17 16 15 15 15
12 12 12 12 12 13 13 13 12 12 11 11 11 11 11 11 12 11 12 12 13 12 13 13 14 14 14 14 14 15 15 14 14 15 16 16 16 16 16 17 17 16 15
12 10 11 12 13 13 14 14 13 13 12 12 12 12 11 13 13 13 13 14 14 14 14 14 14 14 14 15 15 15 15 15 15 15 15 15 16 16 16 17 17 16 16
12 11 12 13 13 14 14 14 14 14 13 13 13 12 12 13 13 13 13 14 15 15 15 15 15 15 15 15 15 15 15 15 15 15 15 15 15 15 16 16 17 17 17
12 13 13 13 13 13 14 14 14 14 14 14 14 14 13 13 13 14 13 14 14 14 14 15 15 15 15 15 15 15 15 15 15 15 15 16 16 15 16 16 17 18 18
13 13 13 13 12 13 13 14 14 14 14 14 14 14 14 14 14 15 14 14 14 14 15 15 15 15 15 15 16 16 16 16 15 15 16 16 16 16 16 16 15 15 18
13 12 13 13 13 12 12 12 13 13 14 14 14 14 14 14 15 15 15 15 15 15 15 15 15 16 15 16 16 16 16 16 16 16 16 16 16 16 16 16 16 17 16
14 13 13 12 12 12 12 13 12 13 13 13 14 15 14 15 15 16 15 15 15 15 16 15 15 16 16 16 16 16 16 16 16 17 17 17 17 17 17 17 17 17 18
14 13 13 12 12 12 12 13 12 13 13 13 14 14 14 15 15 15 15 15 15 15 15 16 16 16 16 16 16 16 16 16 17 18 17 18 18 18 18 18 18 18 18
14 13 12 12 13 12 12 12 12 13 13 13 14 14 14 14 15 15 15 15 15 15 15 16 16 16 16 16 16 16 16 16 17 17 18 18 18 19 19 18 19 18 19
14 13 12 12 12 13 12 12 12 12 13 14 14 14 14 14 14 14 14 15 15 15 15 15 16 16 16 16 17 17 17 17 17 17 17 18 18 18 19 19 19 19 19
13 13 11 12 13 13 12 13 13 12 12 14 14 14 14 14 14 14 14 14 15 15 15 16 16 16 16 17 17 17 17 17 17 17 18 18 17 17 18 19 19 20 20
13 13 12 12 13 13 13 13 14 14 14 13 13 14 14 14 14 14 14 14 15 15 15 16 16 16 16 14 14 16 17 17 17 18 18 18 18 17 16 16 17 19 21
13 13 12 13 13 13 13 15 15 15 15 14 13 14 14 14 15 14 15 15 15 15 15 16 16 16 16 14 13 14 16 17 17 18 19 19 19 18 17 16 17 17 17
13 12 11 12 13 12 13 14 14 16 16 15 15 15 15 16 15 15 15 15 15 15 15 15 15 16 16 14 13 13 16 17 17 18 18 19 19 19 18 18 18 18 18
11 10 11 12 12 12 13 13 14 15 15 16 16 16 17 17 15 16 16 15 15 15 15 14 15 16 16 14 13 13 15 17 17 17 18 18 19 18 16 18 18 19 19
10 10 12 12 12 12 12 13 14 15 15 15 16 17 18 17 17 17 16 16 15 16 15 15 15 15 15 13 12 12 13 16 17 18 19 17 18 17 16 18 18 19 19
11 11 12 12 12 12 13 14 14 15 14 15 16 17 18 19 18 17 15 16 16 16 16 16 16 16 15 14 12 12 13 16 17 18 19 19 16 16 15 16 18 18 18
11 11 12 12 12 12 14 15 15 14 15 16 17 18 18 19 18 18 18 15 16 18 17 17 17 17 15 15 13 12 11 14 17 18 18 18 15 15 14 16 18 17 18
11 11 13 13 13 13 14 15 15 15 17 18 19 19 19 19 19 19 18 16 14 16 17 17 18 17 17 16 13 13 12 13 17 17 17 17 15 15 14 14 16 17 20
12 12 14 14 14 13 13 14 15 16 18 20 20 20 20 20 20 19 18 17 15 15 16 16 17 17 18 18 16 15 13 13 15 16 17 16 15 15 15 15 16 19 20
12 13 14 14 14 14 14 15 16 17 19 20 20 21 21 21 21 20 19 17 15 14 16 15 16 17 18 17 16 16 15 14 15 17 17 17 17 17 18 18 20 21 22
14 15 15 16 16 17 18 18 18 19 21 22 21 21 21 21 21 21 20 16 15 13 12 12 13 16 14 13 13 13 13 12 15 18 19 19 18 19 19 22 22 22 23

GFSMW_con_lsi_021.txt.gz
Lid_Strength_Index
7 7 7 7 7 7 7 7 6 5 5 4 3 2 2 1 1 0 0 0 1 2 3 5 5 6 7 8 8 8 9 9 9 10 11 11 10 10 9 9 10 11 11
8 8 9 9 9 9 8 8 7 7 6 5 4 3 3 2 1 1 1 1 2 3 4 5 6 7 8 8 8 9 10 10 10 10 11 13 13 11 10 10 10 11 11
9 9 10 10 10 10 9 9 8 8 7 6 5 5 4 5 5 4 3 2 2 3 4 5 6 7 8 8 9 9 10 11 10 9 10 11 12 13 12 11 11 12 12
10 10 10 10 10 10 9 9 9 8 8 7 6 6 6 7 6 6 5 5 4 4 5 6 6 7 8 8 9 9 9 9 11 11 10 10 9 12 15 12 12 12 12
10 11 11 11 10 10 10 9 9 9 9 8 8 8 8 7 7 7 7 6 6 6 6 6 7 8 8 8 9 9 9 9 10 11 11 11 11 10 11 14 13 12 12
10 10 10 10 11 10 10 10 10 10 9 9 9 9 9 9 8 8 8 7 7 7 7 7 7 8 9 9 9 9 9 9 9 10 10 11 12 13 12 11 13 14 13
10 11 11 11 11 11 11 11 11 11 10 10 10 10 10 9 9 9 8 8 8 8 9 8 8 9 9 9 9 10 10 10 10 10 11 11 11 10 11 11 13 14 13
10 10 11 11 11 11 11 11 11 12 12 11 11 10 10 10 10 10 9 9 9 8 8 9 9 9 9 9 10 10 11 11 11 11 10 11 11 11 11 12 13 15 15
10 10 10 11 11 11 11 11 11 11 12 12 11 11 11 11 11 10 10 10 9 9 9 9 9 10 10 10 10 11 11 11 11 11 11 11 11 11 11 11 12 13 16
10 10 10 10 11 10 10 11 11 12 12 11 11 11 11 11 10 10 11 11 11 10 10 10 10 10 11 11 11 12 11 12 12 12 12 12 12 12 11 12 12 11 12
11 11 10 11 11 11 11 11 11 12 12 12 11 11 11 11 12 12 11 11 11 11 11 11 11 11 11 11 12 12 12 12 12 12 12 13 12 12 12 12 12 13 12
12 12 11 11 12 12 12 12 12 12 12 11 11 11 12 12 13 13 13 12 12 11 12 12 12 12 12 12 12 12 13 13 13 13 13 13 13 12 12 12 13 14 14
13 13 13 12 12 13 13 13 13 12 12 12 11 11 11 12 13 14 13 12 12 12 12 13 13 13 13 13 12 13 13 13 13 13 13 13 13 13 13 13 14 14 16
12 13 13 12 12 13 13 13 13 12 12 12 12 12 11 11 12 13 14 14 13 13 12 12 12 12 13 13 13 14 14 13 13 13 13 13 13 13 14 14 14 14 15
13 12 12 12 11 11 11 12 11 11 11 11 12 12 12 11 12 12 13 12 12 13 12 12 12 13 13 14 14 14 14 14 14 14 14 13 13 13 13 14 14 14 15
11 11 11 11 11 10 10 11 10 10 10 11 12 11 12 12 12 12 13 12 12 13 12 13 13 12 14 12 12 12 13 14 15 15 14 14 14 13 12 12 12 13 14
9 9 10 10 9 9 9 10 10 9 10 11 11 12 12 12 13 13 14 14 13 13 13 12 12 13 12 11 12 12 13 13 14 14 14 14 14 14 14 13 12 12 11
9 8 8 8 8 8 8 9 9 10 10 11 11 12 12 12 13 14 14 14 14 14 14 13 12 12 13 11 10 11 13 13 13 13 14 14 14 15 15 15 14 14 14
8 7 6 7 7 8 8 9 10 10 10 11 11 11 11 12 13 15 15 14 14 15 15 14 14 13 12 11 11 11 11 12 13 13 13 14 14 13 13 15 15 15 14
6 6 6 6 7 7 8 9 10 10 11 11 11 11 11 12 13 13 14 14 14 14 14 15 14 14 14 11 10 11 11 12 12 12 12 13 13 13 12 15 15 16 15
6 5 6 7 8 8 9 11 11 12 11 11 12 12 12 13 13 13 14 14 15 15 16 16 15 15 14 13 10 9 11 12 12 11 12 12 11 11 12 12 14 15 14
7 7 8 9 9 10 11 13 13 12 13 14 15 15 16 15 15 16 16 17 17 18 18 17 16 15 13 11 10 9 8 9 11 11 11 11 11 11 11 11 12 13 13
9 9 11 12 12 12 12 14 14 15 16 18 19 19 18 18 18 18 18 18 18 18 19 18 18 17 14 13 10 9 9 8 9 10 10 9 10 11 12 11 12 13 13
11 11 13 14 14 14 14 15 16 17 19 21 21 20 21 20 20 19 19 20 20 20 19 19 19 18 16 15 12 11 11 10 10 10 9 9 9 10 12 13 12 13 13
12 12 14 15 15 15 16 17 17 19 21 21 21 22 21 22 22 21 22 21 20 20 21 20 19 19 19 16 13 13 12 11 11 11 11 10 10 11 13 15 14 14 14
13 15 15 16 17 18 18 18 19 20 22 23 23 23 23 23 23 23 22 19 18 17 16 16 16 17 14 13 12 11 11 11 9 10 12 12 11 12 14 14 15 15 14

GFSMW_con_lsi_024.txt.gz
Lid_Strength_Index
10 10 10 10 10 10 10 10 9 9 8 7 6 6 5 4 3 3 2 2 3 4 5 7 7 8 9 10 10 11 11 12 12 13 13 13 13 13 13 13 13 13 12
11 10 11 11 11 11 11 10 10 9 9 8 7 6 6 6 4 4 4 3 3 4 6 7 8 9 10 11 11 11 12 12 12 13 14 16 15 14 13 13 13 14 14
12 12 12 12 12 12 11 11 10 10 9 9 8 8 7 8 8 7 6 5 4 5 5 7 8 9 10 10 11 11 11 13 13 12 13 15 16 16 15 15 14 14 15
11 11 12 12 12 12 12 12 11 11 10 9 9 9 9 10 10 9 8 7 6 6 6 7 8 9 10 11 11 11 11 12 13 13 12 13 13 16 18 15 15 15 15
11 12 12 11 11 12 12 12 12 11 11 11 11 11 11 10 10 10 10 10 8 8 8 8 9 10 11 12 12 12 12 12 13 13 14 14 14 14 16 18 17 16 16
11 12 11 12 12 12 13 13 13 12 11 11 12 12 12 12 12 12 12 11 10 10 9 9 9 10 11 12 12 13 13 13 13 12 14 14 15 15 15 16 17 17 16
12 12 12 12 12 13 13 13 14 14 13 12 12 12 13 13 13 13 12 12 12 11 10 10 11 10 10 11 12 13 13 13 13 14 13 14 14 14 14 15 17 17 17
11 12 12 12 12 13 12 13 14 14 13 13 13 13 13 12 13 13 13 13 13 12 11 11 11 11 11 11 12 13 14 14 13 14 14 14 14 13 14 15 17 18 19
11 11 12 12 12 12 13 12 13 14 15 14 14 14 13 13 14 13 13 13 13 12 12 12 12 12 12 12 12 14 14 14 14 13 14 14 14 14 14 14 15 16 20
12 12 12 13 12 12 12 12 13 13 14 14 13 13 13 14 14 14 14 14 13 13 13 13 13 13 13 13 14 14 14 14 15 14 15 14 15 14 14 14 15 15 16
13 13 12 13 13 13 13 14 13 13 14 14 13 14 15 15 14 14 14 14 14 13 13 13 13 13 13 13 14 15 14 14 14 15 15 15 15 14 15 15 15 15 16
13 13 12 12 13 13 14 14 13 14 14 14 14 14 14 14 15 15 15 14 13 13 13 13 14 14 13 14 14 14 14 15 15 15 15 15 14 15 16 16 14 14 16
13 12 12 13 13 13 13 13 14 14 13 14 15 15 15 15 15 16 16 15 14 14 13 13 13 14 14 14 14 13 13 14 14 14 15 14 15 15 14 15 15 14 15
11 13 14 14 12 12 13 13 13 13 13 13 14 15 15 15 15 15 16 16 15 15 15 14 13 12 13 14 14 14 14 13 13 13 13 13 14 14 14 14 15 15 15
11 12 12 13 12 12 12 12 12 12 13 13 14 14 14 13 14 14 15 15 15 14 14 14 14 13 13 12 13 13 15 14 14 13 13 13 13 12 13 14 14 14 15
11 11 11 11 11 11 11 10 12 12 12 13 14 13 13 13 14 14 14 14 14 14 14 14 14 14 13 11 10 10 12 12 13 13 13 13 13 13 11 11 11 12 14
10 10 9 10 10 10 9 10 10 11 13 14 13 13 13 13 13 13 14 14 15 15 15 15 14 14 14 11 10 9 11 12 12 12 12 12 13 13 14 12 11 11 10
10 9 9 8 8 8 9 9 10 11 11 12 12 12 12 13 13 13 14 14 14 15 15 15 15 15 14 11 11 10 11 12 11 11 12 12 12 12 13 14 14 13 13
8 8 8 8 8 9 9 10 11 11 11 11 11 12 12 13 12 13 13 13 13 14 15 15 15 16 15 13 12 11 13 12 12 11 11 11 11 10 9 12 14 14 14
8 8 8 8 9 10 10 11 12 13 13 12 12 12 13 14 14 14 14 13 14 14 14 14 14 15 16 13 12 12 13 14 13 12 12 11 11 9 9 11 12 15 15
9 9 10 10 10 11 12 13 13 14 14 14 15 16 16 17 17 17 17 17 17 17 17 17 17 17 16 16 13 12 13 13 13 13 12 11 9 9 8 8 11 12 11
10 10 11 11 11 12 14 15 15 15 16 17 18 19 20 20 19 20 20 20 20 20 20 20 19 18 17 15 14 13 12 11 13 12 11 11 8 8 8 9 9 9 10
11 11 14 14 13 15 15 17 16 16 18 20 21 21 21 21 21 22 22 22 22 22 22 21 21 20 18 18 15 14 13 12 13 12 10 9 8 8 8 8 8 9 10
13 14 16 17 17 16 15 18 17 18 20 22 22 21 22 22 22 22 22 23 23 24 23 23 23 23 22 21 19 18 17 15 14 11 11 10 9 9 9 9 8 8 9
14 16 17 17 17 16 17 19 18 20 21 21 21 22 22 23 23 22 22 21 20 20 21 21 20 21 20 19 16 16 17 16 15 14 13 13 13 13 12 10 9 9 9
16 16 17 17 18 18 19 19 21 22 22 22 22 23 24 24 23 23 23 18 16 15 15 14 16 17 15 14 14 14 13 13 12 14 15 15 14 13 13 11 10 10 10

GFSMW_con_lsi_027.txt.gz
Lid_Strength_Index
12 12 12 12 12 12 11 11 10 10 9 8 7 6 6 5 4 3 2 2 2 3 6 6 7 8 9 10 11 12 12 13 13 13 14 14 13 13 13 12 12 12 12
13 12 12 13 13 13 12 12 11 11 10 9 9 8 8 8 7 5 4 3 3 3 5 6 7 9 11 11 11 12 13 13 13 14 15 16 15 14 13 13 13 14 13
13 13 13 13 13 13 13 12 12 12 11 10 9 9 9 9 9 8 7 6 4 4 5 6 8 9 9 10 11 12 12 13 13 13 14 16 16 16 15 14 14 14 15
12 12 12 13 13 13 13 12 12 12 11 12 12 12 12 12 11 11 10 9 7 7 6 6 7 9 10 10 12 12 12 13 14 14 12 13 14 16 17 15 15 15 15
12 12 13 12 12 12 13 13 13 12 12 12 12 13 13 12 12 11 11 11 10 9 8 8 7 8 9 11 11 12 13 13 13 14 15 15 15 15 17 18 17 15 15
13 12 12 12 13 13 14 13 13 13 13 12 13 13 14 13 13 13 13 13 12 11 10 9 10 10 9 10 11 11 12 12 13 14 14 14 15 16 16 17 18 17 16
13 13 13 13 13 13 14 13 14 14 13 13 13 14 14 14 14 14 14 14 14 13 13 13 12 12 11 11 12 12 13 13 12 13 13 13 14 14 15 16 17 18 17
13 13 13 13 13 13 14 14 14 14 14 14 15 14 14 15 14 14 14 14 14 14 13 13 14 14 13 12 12 13 14 14 14 13 13 12 13 14 14 15 17 18 19
13 13 13 13 13 13 13 13 14 14 13 13 14 14 14 15 15 15 15 15 15 14 14 14 14 14 14 14 14 14 15 15 14 14 14 13 13 13 14 15 15 14 17
12 12 13 13 13 13 13 13 14 14 14 14 13 14 14 14 15 15 15 15 15 15 15 15 15 15 14 14 15 15 15 15 15 14 15 14 13 14 14 13 15 16 14
12 12 13 13 13 13 13 13 12 13 14 14 14 14 13 13 14 14 15 15 15 15 15 15 15 16 15 14 15 15 15 15 15 15 15 15 15 14 13 15 14 15 17
13 12 12 13 13 13 13 14 13 13 13 13 13 13 13 14 14 15 15 15 15 15 15 15 16 16 16 15 15 15 14 15 15 14 15 14 14 15 14 15 14 14 15
12 12 12 11 12 12 12 12 12 12 12 14 14 14 14 15 15 15 15 15 16 16 16 16 16 16 16 16 15 15 14 13 13 12 13 14 14 14 14 14 14 14 14
12 12 12 12 12 12 13 13 13 12 12 13 14 15 15 15 15 14 14 15 15 16 15 15 15 15 16 15 15 15 15 15 14 13 12 12 13 13 13 14 14 14 14
12 12 13 13 12 12 12 12 12 12 12 12 13 13 13 13 13 13 13 13 14 14 14 15 15 15 15 15 15 14 14 14 14 13 13 13 12 11 11 13 13 13 14
12 12 12 12 12 11 11 11 11 11 11 11 12 11 11 11 11 11 11 12 12 13 13 14 15 16 14 12 11 11 12 12 13 13 12 12 13 11 10 9 9 11 13
12 12 11 11 11 11 10 10 10 10 12 13 12 12 11 11 11 11 11 12 12 13 14 14 14 14 14 12 12 11 12 13 12 13 13 12 12 12 12 11 9 9 8
11 11 10 10 9 9 9 10 10 11 11 12 13 12 12 12 12 12 13 13 13 13 13 13 14 14 14 12 11 12 13 13 13 13 13 12 12 11 11 12 12 12 11
10 10 9 9 9 10 10 11 11 11 11 12 12 13 14 15 15 16 15 15 15 15 15 14 14 15 15 12 12 12 14 15 15 14 13 13 13 11 9 11 12 12 12
9 9 9 9 10 11 11 12 13 14 14 13 14 14 15 17 18 18 18 18 18 18 17 17 17 17 17 14 13 13 15 16 16 15 14 13 12 11 10 11 12 12 12
9 10 10 11 11 12 13 14 14 15 15 15 16 17 17 19 20 20 20 20 21 20 21 21 20 19 19 18 15 14 16 16 16 16 15 14 11 10 10 8 10 11 11
10 10 11 12 12 13 14 15 16 15 17 18 19 19 21 20 20 22 22 22 22 23 23 22 22 20 19 17 16 15 14 14 17 17 15 14 12 11 9 9 8 7 7
10 12 14 14 14 16 16 18 17 17 18 22 22 22 21 21 21 22 22 23 23 23 23 22 22 22 20 19 16 16 16 15 17 17 16 14 13 12 11 10 8 8 8
13 15 16 18 18 18 16 19 19 18 25 26 22 21 21 21 21 21 22 23 23 24 23 23 22 21 20 18 17 18 19 17 17 17 17 16 14 13 13 12 9 9 9
14 16 17 18 18 18 19 21 19 22 23 22 21 20 21 22 22 22 23 23 22 21 21 20 18 18 18 16 13 13 14 14 14 16 18 18 16 16 15 12 11 12 11
15 16 17 19 20 22 21 21 23 25 24 21 20 21 21 22 21 23 23 19 18 17 15 14 15 16 13 12 12 11 11 10 11 14 16 17 17 17 16 15 13 12 11

GFSMW_con_lsi_030.txt.gz
Lid_Strength_Index
13 13 13 13 13 13 12 12 12 12 10 10 8 7 7 7 4 3 2 2 2 4 4 5 6 7 7 8 9 12 12 13 13 14 14 14 13 13 13 12 11 12 11
14 13 13 14 14 14 13 13 12 12 12 11 11 9 9 10 9 7 6 5 3 3 4 5 6 6 8 9 10 11 13 13 13 14 15 16 15 14 13 13 12 12 13
14 14 14 14 14 14 14 13 13 12 12 12 11 11 11 11 11 11 10 8 7 6 5 6 7 8 8 9 10 11 11 12 14 14 14 17 17 16 15 14 13 13 14
14 14 14 14 14 15 14 13 13 12 12 12 12 13 13 14 13 13 12 11 10 10 9 8 7 8 9 9 10 10 11 12 12 14 13 14 15 16 17 15 15 14 14
14 14 14 13 13 14 14 13 13 13 12 13 13 13 13 13 13 13 13 13 12 12 12 12 10 9 8 10 10 11 12 12 12 13 15 15 15 15 16 16 16 16 15
14 13 13 13 14 14 14 14 13 13 13 13 14 14 14 14 15 15 15 14 14 13 13 13 13 12 12 11 10 11 11 12 12 12 13 14 15 16 16 17 17 17 16
14 14 14 14 14 15 15 14 14 14 14 14 14 15 15 15 15 15 15 16 15 15 14 14 14 14 14 13 13 12 12 12 12 12 12 12 13 13 15 16 17 18 17
13 13 13 14 14 15 15 15 15 14 14 15 15 15 15 15 15 15 15 16 16 15 15 15 15 15 14 14 14 14 14 13 13 13 13 12 12 12 13 13 16 17 18
13 13 13 13 13 13 14 14 15 15 14 14 14 14 14 16 16 15 15 15 15 15 15 15 15 15 15 15 15 16 16 16 15 15 15 14 13 13 13 13 13 14 16
12 13 13 13 13 13 13 13 14 15 14 14 14 14 14 14 15 16 16 16 15 15 15 16 15 14 15 15 16 15 15 15 15 15 15 15 14 14 14 14 13 13 14
12 13 13 12 13 12 12 13 13 14 14 14 14 14 14 14 15 15 15 16 16 16 16 16 16 15 15 15 15 15 15 15 15 15 16 15 14 14 15 15 14 14 13
12 12 13 13 13 13 14 13 13 13 12 14 14 14 14 15 16 16 15 15 15 15 16 16 16 16 16 15 15 15 14 15 16 16 15 15 14 15 14 14 14 15 14
13 12 13 13 13 13 13 13 13 13 12 13 13 13 14 14 14 14 13 13 14 14 15 15 16 15 15 15 16 16 16 15 15 15 15 15 15 15 14 14 14 14 13
13 13 12 12 12 12 13 13 13 13 13 13 13 14 14 14 14 14 14 14 14 14 14 15 16 15 15 15 15 15 16 15 15 15 15 14 14 15 15 14 13 13 13
12 13 13 13 13 13 13 13 13 12 13 13 13 13 13 13 13 13 14 13 14 13 14 14 15 15 15 15 15 15 15 14 14 13 14 14 14 13 13 14 14 14 13
12 12 12 13 13 12 12 12 12 12 12 12 13 12 12 12 12 12 12 12 12 13 13 14 14 14 13 12 11 12 14 14 15 14 13 13 13 13 11 11 10 10 13
13 13 13 13 12 12 12 12 11 11 13 13 14 13 13 13 12 13 13 13 14 14 14 14 14 14 13 11 11 10 12 14 15 15 15 14 13 13 13 11 10 10 9
12 12 13 12 11 11 11 11 11 12 12 13 15 14 13 15 15 15 16 16 16 16 16 16 16 16 15 12 12 12 13 14 14 14 15 15 15 14 13 12 12 12 12
12 12 11 11 11 11 11 11 12 12 13 13 13 14 16 17 17 18 18 17 18 18 18 17 18 18 18 15 14 14 16 16 16 15 15 15 16 14 12 14 14 14 12
11 11 10 10 11 11 11 13 13 14 15 14 15 16 16 20 19 19 19 19 19 19 19 19 19 20 21 17 16 15 17 18 17 16 15 14 14 13 12 13 14 15 14
10 9 10 10 11 12 13 14 15 16 16 16 17 18 18 19 20 20 20 21 21 20 22 21 21 21 20 20 16 14 16 17 17 17 17 16 14 13 13 12 13 13 12
10 10 11 12 12 14 15 16 16 16 18 19 20 20 22 21 20 22 21 22 22 23 23 23 22 21 20 18 16 15 13 13 16 17 16 17 14 14 13 13 13 12 11
9 10 12 13 14 16 16 17 17 18 19 23 25 25 23 21 20 22 22 22 22 23 23 23 23 22 20 20 16 14 13 13 15 15 14 12 12 12 13 13 13 14 15
12 15 16 17 17 16 16 18 19 20 26 29 25 22 22 21 22 20 20 22 23 23 23 23 23 22 20 18 16 16 16 14 14 13 14 14 13 12 13 14 14 14 15
14 15 16 17 17 17 18 20 20 24 25 25 22 21 21 23 21 20 21 20 19 19 20 19 19 19 19 17 14 13 14 13 12 11 12 13 16 18 18 18 16 15 15
16 17 18 18 18 19 19 21 22 25 27 23 21 21 20 20 20 21 21 17 16 15 14 14 15 16 14 13 12 12 11 11 10 12 13 13 14 14 15 16 17 16 15

GFSMW_con_lsi_033.txt.gz
Lid_Strength_Index
14 14 14 14 14 14 13 13 13 12 11 10 10 9 10 10 9 8 7 6 4 3 3 4 4 5 6 6 8 10 11 12 12 13 14 14 13 14 13 13 13 11 10
15 15 15 15 15 15 14 13 13 13 12 11 11 10 11 11 11 10 10 9 8 7 6 6 7 7 7 8 9 10 11 11 12 13 15 15 14 14 13 14 13 12 12
16 15 15 16 16 15 15 14 13 13 12 12 11 11 11 12 12 13 12 12 11 11 10 9 7 8 8 8 9 10 11 11 12 13 12 15 17 17 15 15 14 14 13
15 15 16 16 16 16 15 14 14 14 13 12 12 13 14 14 14 13 13 13 13 14 13 12 11 10 9 9 10 10 11 11 11 12 12 13 14 15 16 16 15 15 14
16 16 16 15 15 15 15 15 14 13 13 13 13 14 15 14 15 15 15 14 14 14 14 14 13 13 12 12 11 10 11 11 12 12 13 14 14 14 15 15 16 15 15
15 15 15 15 15 15 15 15 14 14 14 14 14 15 15 15 15 15 16 15 15 15 15 15 15 15 14 14 13 13 12 12 11 12 12 13 13 14 15 16 15 16 15
15 15 15 15 16 16 15 14 15 15 15 15 14 15 16 16 16 16 16 16 16 16 15 15 16 16 15 15 15 14 14 13 13 13 12 12 12 13 13 14 14 15 16
14 14 14 15 16 15 15 15 15 15 15 15 15 15 16 16 15 16 16 16 17 16 16 15 16 16 15 16 16 16 16 15 15 14 14 13 12 12 12 13 14 15 14
14 14 14 14 15 15 15 15 15 15 15 15 15 15 15 15 16 16 15 16 15 14 15 16 15 15 15 15 15 16 16 16 15 15 15 15 14 14 13 12 12 14 16
14 14 14 14 14 14 14 14 15 15 14 14 14 14 14 14 15 15 15 15 15 16 16 16 16 16 16 15 15 15 15 15 16 15 15 15 14 14 14 14 14 14 14
13 13 13 13 13 13 14 14 14 14 14 14 14 14 14 14 14 14 14 14 14 15 15 16 16 16 16 17 17 16 16 16 16 15 15 15 14 14 13 14 14 15 15
12 13 14 14 14 14 14 14 14 14 14 13 14 14 14 14 14 14 14 14 14 14 14 15 15 15 15 16 17 16 16 16 16 16 16 16 14 14 13 13 14 14 14
13 13 14 14 14 14 14 14 14 13 13 13 13 13 14 14 14 14 14 14 14 14 14 14 15 15 15 15 16 16 15 16 16 15 15 15 15 15 15 14 14 14 13
13 13 14 14 14 13 14 14 13 13 13 13 13 14 14 14 14 14 14 14 14 14 14 14 14 14 15 15 15 15 15 15 15 14 14 15 15 15 15 14 14 14 14
14 13 12 12 13 13 13 14 14 13 13 14 13 14 13 13 14 14 14 14 14 14 14 14 15 14 14 14 14 14 14 15 15 15 14 14 14 13 13 14 13 14 14
12 12 12 12 12 12 13 13 13 13 13 13 14 13 14 14 14 14 14 14 14 14 14 14 15 15 14 12 11 12 13 14 14 14 14 14 15 14 13 12 11 11 13
11 12 12 12 13 13 12 13 13 13 15 15 16 15 14 14 14 15 15 15 16 15 16 16 16 16 16 13 12 12 14 15 15 15 15 14 14 14 14 13 12 12 12
13 13 13 13 13 13 13 13 13 14 14 15 15 15 15 16 16 16 17 17 17 17 17 17 17 17 17 14 14 14 15 16 16 16 16 16 16 15 14 15 15 15 14
13 13 12 13 13 13 12 13 13 13 13 13 14 15 16 18 18 20 19 18 18 19 19 18 19 20 19 16 15 15 17 17 17 16 16 16 16 14 13 15 16 15 15
12 12 12 12 12 13 12 13 14 14 15 14 15 16 17 21 21 19 20 19 20 19 19 19 20 20 21 17 16 15 17 18 17 16 16 14 14 13 12 14 15 16 15
12 12 12 11 11 12 13 14 14 15 15 16 17 18 18 21 21 21 20 21 21 20 22 21 21 21 19 19 16 14 16 17 17 17 16 15 13 12 12 11 14 15 14
12 11 11 11 12 13 14 15 16 15 17 18 19 21 23 22 21 26 23 24 23 23 23 23 22 20 18 17 16 15 14 13 16 17 16 15 12 12 11 11 10 10 10
10 10 11 12 13 15 15 16 17 17 18 21 23 27 24 22 22 25 23 23 24 24 23 22 22 21 18 18 16 14 14 13 15 14 13 11 11 10 10 10 10 11 14
11 13 14 14 16 17 16 18 18 19 25 23 24 23 24 24 24 21 20 22 23 22 21 22 21 20 18 16 16 16 16 14 14 13 14 13 11 10 10 12 12 12 13
13 14 13 14 16 17 18 20 20 21 22 23 22 22 23 24 23 21 21 20 19 18 18 17 17 17 17 16 13 12 14 13 12 12 13 14 14 14 14 15 15 15 15
14 15 16 17 18 19 20 22 24 23 24 22 21 22 22 22 21 21 21 16 14 13 13 12 14 15 13 12 12 12 11 11 12 16 19 19 19 18 17 16 15 14 13

GFSMW_con_lsi_036.txt.gz
Lid_Strength_Index
15 15 15 16 15 15 14 14 13 13 11 11 10 10 12 11 11 11 11 11 10 8 7 6 6 6 7 7 8 9 9 10 12 12 12 12 12 13 13 13 13 13 11
16 16 16 16 16 16 15 14 14 13 12 12 12 12 12 12 12 11 12 12 12 11 10 9 8 8 8 8 9 9 10 11 12 12 14 14 14 15 14 14 13 13 13
17 17 17 17 17 17 17 15 15 14 13 12 12 12 12 13 13 14 14 14 14 13 13 13 12 11 10 10 10 10 10 11 11 12 12 14 15 15 15 15 15 15 14
17 17 17 17 17 17 16 16 16 15 14 14 14 15 15 16 15 15 15 15 15 15 14 14 14 14 13 13 12 10 11 11 12 12 12 13 14 15 15 15 14 15 15
16 17 17 17 17 17 17 17 16 15 15 15 15 15 16 15 16 16 15 15 15 15 14 15 15 15 15 15 14 14 13 12 13 12 12 13 14 14 15 15 14 14 14
16 16 16 16 17 17 17 17 16 16 15 15 15 15 16 16 16 16 16 15 15 15 15 15 15 15 15 16 16 15 15 14 13 13 13 13 13 14 14 15 13 14 14
16 17 17 17 17 17 17 16 16 16 16 16 16 16 16 16 16 16 16 16 16 16 15 15 15 15 15 15 15 16 16 16 15 15 14 13 13 12 13 14 14 14 14
15 16 16 17 17 17 17 16 16 16 16 16 16 16 16 16 16 16 16 16 16 15 15 15 15 15 15 16 16 16 16 16 15 16 15 14 14 13 13 13 14 15 15
15 15 15 16 17 17 16 16 16 16 16 16 16 16 16 16 16 16 16 16 15 14 15 15 16 15 15 15 16 17 16 15 16 15 15 15 14 13 13 13 14 15 16
15 15 15 15 16 16 16 16 16 15 15 15 15 15 15 15 15 15 15 15 15 15 15 15 15 15 15 15 16 16 15 15 16 16 16 15 14 14 13 13 13 14 15
14 14 14 14 15 15 16 16 16 15 15 15 15 15 15 14 14 14 15 15 15 15 15 15 15 15 15 15 16 16 16 16 16 16 16 16 15 15 15 14 14 14 14
13 14 14 14 15 15 15 15 15 15 15 15 14 14 14 14 15 15 15 15 15 14 14 14 15 15 15 15 16 16 16 16 16 16 15 15 14 15 15 16 15 14 14
13 13 14 15 15 15 15 15 14 14 14 14 14 14 14 14 14 14 14 14 15 15 15 15 15 15 15 15 15 15 15 15 15 15 15 15 15 15 15 15 15 15 14
13 14 15 15 14 14 15 15 14 14 13 13 14 14 14 14 14 14 15 15 15 15 16 16 16 16 16 15 15 14 14 14 14 14 14 14 15 15 15 15 14 14 15
13 14 14 14 14 14 14 14 14 14 14 14 14 14 14 14 15 15 16 16 16 16 16 16 16 15 15 14 13 13 13 14 14 13 13 13 13 12 12 14 14 14 15
13 13 13 12 12 12 13 13 14 13 13 14 14 14 15 15 16 17 16 16 16 16 16 15 16 16 15 13 12 12 13 14 14 15 15 14 14 13 12 11 12 12 14
11 11 13 12 12 12 11 13 13 13 15 15 17 17 17 17 17 17 16 16 17 16 17 17 16 17 16 13 12 12 14 14 15 15 15 15 15 15 15 14 13 13 12
12 11 12 13 12 12 12 13 13 14 15 16 17 17 17 18 17 17 17 17 17 17 18 18 18 17 17 14 13 13 14 15 16 16 16 16 16 15 15 15 15 14 14
12 12 12 13 13 13 13 13 14 14 15 16 16 16 17 18 18 20 19 18 19 19 19 17 19 19 19 15 14 14 15 16 16 16 16 16 16 14 13 14 15 15 14
13 12 12 13 13 13 13 14 15 16 16 15 14 16 17 20 21 19 20 20 21 19 18 19 19 19 20 16 14 13 15 17 16 15 15 14 14 12 12 13 15 16 15
12 12 13 12 12 13 14 14 15 15 15 15 16 17 18 20 21 21 21 23 23 20 22 21 20 20 19 19 14 12 13 15 15 15 15 15 13 12 12 11 13 14 13
12 11 12 13 12 14 14 14 14 15 17 17 18 19 21 21 19 26 24 25 25 25 24 23 22 19 18 15 13 12 11 11 14 15 14 14 12 11 10 10 10 9 9
12 12 12 13 13 15 13 14 15 17 18 20 21 22 21 20 20 25 23 23 25 25 23 21 21 20 17 16 13 11 11 10 12 12 12 10 10 10 11 11 10 11 13
12 14 15 15 14 16 15 16 17 18 21 24 21 21 23 21 21 20 20 24 24 23 22 21 21 19 16 15 15 14 12 11 12 11 12 13 13 13 13 14 13 14 13
14 15 13 13 13 16 17 19 19 20 22 23 21 20 20 21 21 20 21 20 20 19 21 18 16 16 16 15 11 11 12 12 12 14 17 20 20 20 19 18 17 16 15
15 15 15 15 17 17 19 21 20 21 22 21 20 20 20 20 20 21 21 16 13 12 11 11 12 14 12 11 11 10 11 12 13 20 24 23 22 22 21 21 20 19 18

GFSMW_con_lsi_042.txt.gz
Lid_Strength_Index
12 12 11 11 10 9 8 8 8 7 6 5 6 7 8 9 10 10 9 8 8 7 6 6 5 5 5 6 5 5 6 6 7 6 5 5 6 7 7 6 6 7 8
12 12 12 11 11 10 10 9 9 8 7 7 7 8 10 11 11 11 11 11 10 10 9 8 8 8 7 7 7 6 6 6 6 8 6 7 6 7 6 6 7 8 7
12 12 12 12 11 12 11 10 10 9 8 8 9 10 10 11 11 12 12 12 12 11 11 11 11 10 9 9 9 8 7 7 6 7 8 8 9 9 6 6 7 7 7
13 13 13 13 13 13 12 11 11 10 10 9 9 10 11 13 13 13 12 12 12 12 11 11 11 11 11 11 11 10 10 8 9 7 7 6 8 10 10 7 7 8 8
12 13 13 14 14 13 13 12 12 12 11 11 11 11 12 12 12 12 12 12 12 12 12 12 11 11 11 11 11 11 10 10 11 10 10 9 8 7 10 10 10 10 9
13 13 14 14 14 14 13 13 13 13 12 12 12 12 12 12 12 12 12 12 12 12 12 12 12 12 12 11 11 11 11 11 11 11 11 11 11 12 12 13 12 11 10
13 14 14 14 15 14 14 14 13 14 13 13 13 12 12 12 12 12 12 12 12 12 12 12 11 12 12 11 11 11 11 11 11 11 11 11 11 11 11 12 13 13 10
13 14 14 14 14 14 14 14 14 14 13 13 13 12 12 12 12 12 12 12 12 13 12 12 12 12 12 12 11 11 11 11 11 12 11 11 11 11 11 12 13 14 13
13 14 14 14 14 14 14 13 14 14 13 13 13 13 13 12 13 13 13 13 13 13 12 12 12 12 12 12 12 11 12 11 11 11 11 11 11 10 10 11 11 13 15
13 13 13 14 14 14 14 14 14 14 13 13 13 13 13 12 12 12 12 12 13 13 13 13 12 12 12 12 12 12 11 12 11 11 12 11 11 11 11 11 11 11 12
13 13 13 13 14 13 13 13 13 13 13 13 13 13 12 12 12 12 12 12 12 13 13 13 13 13 12 12 12 12 12 12 12 11 12 12 11 11 11 11 11 11 12
12 12 12 12 13 14 14 13 13 13 13 12 12 12 12 12 12 12 12 12 13 12 13 13 13 13 13 13 13 13 12 13 13 13 13 13 12 12 12 12 12 12 12
12 12 12 12 12 13 13 13 13 13 12 13 12 12 12 12 12 12 12 12 12 13 13 13 14 14 14 13 13 13 13 13 13 13 13 13 13 13 13 13 13 13 12
12 12 12 11 11 12 13 13 13 13 13 13 13 12 12 12 12 12 12 12 13 13 13 13 14 14 14 14 14 13 13 12 12 12 12 12 12 12 12 13 12 12 12
11 11 11 11 11 11 12 12 13 13 13 13 13 12 12 11 11 12 13 13 13 14 14 14 14 14 14 14 13 12 12 12 12 11 11 11 12 12 12 12 12 13 13
11 11 10 10 11 12 12 12 12 13 12 12 12 11 10 11 12 13 13 14 14 14 15 15 15 15 14 13 12 11 11 11 12 12 12 12 12 12 12 12 11 11 13
11 11 10 10 11 11 11 12 12 12 12 12 11 11 11 12 12 13 14 14 14 14 15 14 14 14 13 13 11 11 11 11 12 12 12 13 12 12 13 12 11 11 11
11 11 10 10 10 11 11 11 11 11 12 11 11 11 11 12 13 14 15 14 14 14 14 14 14 14 13 13 12 11 11 12 12 12 12 12 12 12 12 12 12 11 11
11 10 10 10 11 11 10 11 12 11 11 11 11 11 12 13 14 15 14 14 14 14 14 14 14 15 14 14 12 11 11 12 12 12 11 11 12 11 9 10 11 10 10
12 12 12 12 11 11 11 11 11 11 11 10 11 11 12 13 14 14 14 13 14 14 14 14 14 15 16 14 13 11 11 12 11 11 10 9 10 9 9 10 10 11 10
13 13 13 13 12 12 12 12 11 12 10 10 11 12 13 14 14 14 14 15 15 15 15 16 15 15 15 14 12 11 11 11 11 10 10 10 9 9 8 8 10 11 10
14 13 13 13 12 12 12 11 12 10 11 12 13 14 15 15 15 16 16 16 16 16 16 16 15 14 14 13 12 10 9 9 10 11 10 10 9 10 10 10 11 10 11
14 13 12 13 12 12 11 11 10 12 14 14 15 15 16 16 16 16 16 15 15 15 14 14 14 13 13 12 11 10 10 9 10 9 9 10 11 12 12 12 12 13 14
12 12 13 13 12 12 12 10 13 14 15 15 16 16 17 16 17 15 15 15 14 14 14 14 14 13 13 12 11 10 10 9 8 9 11 12 13 13 13 15 14 15 16
12 13 13 12 11 11 11 12 14 15 14 15 16 15 15 16 15 15 14 14 13 13 14 14 14 14 13 11 10 9 8 8 8 11 13 15 15 16 16 16 16 16 16
12 13 13 12 11 13 13 15 16 15 15 15 15 14 14 15 14 14 14 12 11 11 10 9 10 10 10 8 8 8 7 7 9 12 16 16 16 17 17 17 17 17 17

GFSMW_con_lsi_045.txt.gz
Lid_Strength_Index
11 10 9 8 7 7 7 7 7 6 6 6 6 7 8 8 9 9 8 8 7 7 6 6 6 5 6 6 6 5 5 5 6 5 5 3 4 5 5 5 6 6 6
11 11 9 8 7 7 7 7 6 5 5 5 6 7 9 9 10 10 10 10 9 9 9 9 9 8 8 8 8 7 6 6 6 8 6 6 5 5 5 5 5 6 6
11 11 10 9 8 8 8 8 7 7 7 7 8 9 9 10 10 11 11 11 10 10 10 10 10 10 10 11 10 9 9 9 7 7 7 8 9 8 5 5 5 6 6
11 11 11 10 10 10 9 8 8 8 8 7 8 8 10 12 12 12 11 11 11 11 11 11 11 11 10 10 10 10 10 10 11 9 9 7 8 10 10 7 7 8 8
11 12 12 12 12 11 11 10 10 10 10 9 9 10 11 11 12 12 12 12 11 11 12 11 11 11 11 11 11 11 11 11 11 11 11 10 10 9 13 13 12 10 9
12 12 12 12 12 12 11 11 12 12 11 11 10 11 11 12 12 12 12 12 12 12 12 12 12 12 12 12 11 11 11 11 11 11 11 11 12 13 13 13 13 13 11
12 12 13 13 13 13 12 12 12 13 12 12 11 11 11 11 12 12 12 12 13 13 13 12 12 12 12 12 11 11 12 12 12 12 12 11 11 11 12 12 13 14 12
12 12 13 13 13 13 13 14 13 14 13 12 12 12 11 11 12 12 12 12 13 13 12 13 12 12 12 12 12 12 12 11 11 11 11 11 10 10 11 12 12 14 13
12 13 13 13 13 14 14 13 13 13 13 13 12 12 12 12 12 12 12 12 12 13 13 13 13 13 13 13 12 12 12 11 11 11 10 11 10 10 10 10 10 12 15
12 12 13 13 13 13 13 13 13 13 13 13 12 12 12 12 12 12 12 12 13 13 13 13 13 13 13 13 12 12 11 11 10 11 11 11 10 10 10 10 10 11 12
12 12 12 13 13 13 13 14 13 13 13 13 12 12 12 12 12 12 12 12 13 13 13 14 14 14 14 13 13 12 12 12 11 11 11 11 11 11 11 11 11 11 11
12 12 12 13 13 13 14 14 13 13 13 13 12 12 12 12 12 13 12 12 13 13 14 14 14 14 13 13 13 13 12 12 12 12 12 12 12 12 12 12 12 12 12
11 12 12 13 14 13 13 13 13 13 13 13 12 12 13 12 12 12 12 13 13 14 14 14 14 14 13 13 13 13 13 12 12 12 12 12 12 12 12 12 12 12 12
12 12 12 12 13 13 13 13 13 13 13 13 12 12 12 12 12 12 13 13 13 14 14 14 14 14 14 14 13 13 12 12 11 11 11 11 11 12 12 12 12 11 12
12 12 12 11 12 12 13 13 13 13 12 13 13 12 12 12 12 12 13 14 14 14 14 14 14 14 14 14 13 12 12 11 11 11 11 11 11 10 10 11 12 12 13
11 11 11 11 11 11 12 12 13 13 12 13 13 12 12 12 13 13 14 14 14 14 14 14 14 14 14 13 13 11 11 11 11 11 11 11 10 11 10 10 10 10 12
11 11 11 11 11 11 11 12 12 12 13 13 13 13 12 13 14 14 14 14 14 14 14 14 14 14 13 12 12 11 11 11 11 11 11 11 11 11 11 10 10 10 9
11 10 10 10 10 10 11 11 12 13 13 13 13 13 13 13 13 13 13 13 13 14 14 14 14 14 13 12 11 11 11 11 11 11 11 11 11 10 10 11 10 10 10
10 10 10 10 10 11 11 12 13 13 13 13 13 13 13 13 13 13 14 13 13 14 14 14 14 14 13 12 11 11 11 11 11 10 10 10 10 9 8 9 10 10 10
11 12 11 11 12 12 12 13 14 14 14 13 12 12 12 12 13 13 13 13 13 13 14 14 13 14 14 12 11 11 11 11 11 10 9 8 8 8 7 9 11 13 12
13 13 13 13 12 13 13 13 13 13 12 12 12 12 11 12 12 12 13 14 15 14 15 14 14 14 14 14 11 10 11 11 11 10 10 9 8 8 8 8 11 12 11
14 14 14 14 14 13 13 13 13 11 12 12 12 13 13 12 13 14 15 15 15 16 16 15 14 13 13 12 11 10 9 9 10 10 9 9 8 8 9 10 10 10 11
15 14 14 14 14 13 13 13 12 12 13 13 14 14 14 14 15 16 15 16 16 15 14 13 13 12 11 12 10 9 8 8 9 9 8 7 9 9 10 11 11 12 14
14 14 14 14 14 14 13 12 13 14 14 14 15 15 16 15 16 15 14 14 14 14 13 12 12 12 11 11 10 10 10 8 8 8 10 10 9 10 10 12 13 13 14
14 14 14 13 13 12 12 12 14 15 14 13 14 14 15 15 15 15 13 13 12 11 12 11 11 12 12 11 9 9 9 8 8 9 12 12 12 13 13 13 14 14 14
13 14 14 14 13 13 14 14 15 14 13 14 14 13 14 14 14 13 14 11 10 10 9 9 11 12 10 8 8 7 7 6 8 11 13 14 14 14 14 15 15 15 15

GFSMW_con_lsi_048.txt.gz
Lid_Strength_Index
12 12 11 9 8 8 7 7 7 7 6 8 8 9 11 11 11 11 10 10 10 9 9 9 8 9 10 10 9 8 8 9 9 9 9 7 8 8 7 7 8 7 7
13 12 11 10 8 8 8 7 7 6 6 7 8 11 12 12 12 12 12 12 11 11 11 12 12 12 12 12 12 12 10 11 11 11 10 10 8 9 7 8 8 9 9
14 13 12 11 9 9 8 8 7 8 9 10 11 11 12 13 13 14 13 13 12 12 12 13 12 12 13 13 13 13 13 14 13 13 11 13 13 12 10 11 12 12 12
13 13 12 12 12 11 10 9 9 10 10 10 11 12 13 15 15 14 14 13 13 13 13 13 13 13 13 14 14 13 14 14 15 13 12 13 14 13 14 13 13 12 12
13 13 13 13 13 12 12 12 12 12 12 12 12 13 14 14 14 14 14 14 14 14 14 14 14 14 14 14 14 15 14 14 15 14 14 14 14 15 16 18 15 14 13
14 14 14 14 14 14 14 14 14 13 13 13 13 14 15 15 15 15 15 15 15 15 14 14 15 15 15 15 14 14 14 14 14 14 14 14 15 16 16 17 16 17 15
14 15 16 16 15 15 14 14 14 14 14 14 14 14 14 14 15 15 15 15 16 16 16 15 15 15 15 15 14 15 15 15 15 15 15 14 14 14 14 15 16 17 15
14 15 16 15 15 15 15 15 15 15 15 14 14 14 14 14 14 15 15 15 16 16 16 16 16 15 15 15 15 15 15 15 15 16 15 15 14 13 13 14 14 16 15
14 15 15 15 16 16 16 16 16 15 15 15 15 15 15 15 15 15 15 16 16 15 15 16 16 15 15 15 15 16 16 16 16 16 15 15 14 13 13 12 13 14 17
13 14 14 15 15 16 16 16 15 15 15 15 15 15 15 15 15 15 16 16 16 16 16 16 16 16 16 16 16 16 16 16 16 15 15 14 14 14 13 13 13 13 14
13 14 14 15 15 15 16 16 16 16 16 15 15 16 15 15 15 16 16 16 16 16 16 16 16 16 16 17 17 17 17 17 16 15 15 15 14 14 14 14 14 14 14
13 14 14 15 15 16 16 16 16 16 16 15 16 15 15 15 16 16 16 16 16 16 17 16 17 17 17 17 17 17 17 16 15 15 15 15 13 15 15 14 14 14 14
14 14 14 15 15 16 16 16 16 16 16 15 16 16 16 16 16 16 16 16 17 17 17 17 17 17 17 17 17 16 16 16 15 14 14 15 15 14 14 15 14 14 12
13 14 14 15 15 15 16 16 16 16 15 16 16 17 16 16 16 16 16 17 17 17 18 17 17 17 17 17 16 15 15 15 14 14 14 14 14 14 14 13 13 13 13
14 14 14 15 15 16 16 16 16 16 16 16 16 16 16 16 16 16 17 17 17 17 17 17 18 17 17 16 16 14 14 14 14 14 13 13 12 11 11 12 13 13 14
13 13 14 14 15 15 16 16 16 16 16 16 16 16 16 16 16 17 17 17 17 17 17 18 17 17 16 14 13 13 14 13 13 13 13 12 12 11 10 9 9 10 12
13 13 13 13 14 15 15 15 15 16 16 16 16 16 16 15 16 16 17 17 18 18 18 17 17 17 16 12 12 12 13 13 13 12 12 12 11 11 12 10 9 9 9
12 12 12 12 13 13 14 14 15 16 16 16 15 16 15 15 16 17 17 17 17 17 17 17 16 16 15 12 12 12 13 13 12 12 12 12 11 11 11 11 11 10 9
12 12 11 12 12 13 13 14 15 15 15 15 15 14 15 15 16 16 17 16 17 17 17 17 17 17 16 12 11 12 13 12 12 11 11 11 11 9 7 9 12 11 11
12 12 12 13 12 13 14 14 15 15 15 15 14 14 14 15 15 15 16 16 17 16 16 16 17 17 18 12 11 11 12 15 13 11 10 8 8 7 7 9 12 13 13
14 13 13 13 14 14 15 15 16 15 14 15 15 15 15 14 14 15 17 16 17 16 17 17 17 17 17 16 11 10 11 12 13 12 11 9 7 7 6 6 10 12 10
15 15 15 15 15 15 15 16 16 14 16 16 15 15 14 14 15 16 19 18 17 18 19 19 19 17 15 13 11 9 8 8 11 12 10 10 7 6 6 7 8 8 9
16 16 16 16 16 16 15 16 16 16 17 16 16 17 17 16 16 17 18 19 19 18 18 18 18 17 14 14 10 9 8 7 8 9 8 7 6 7 9 9 8 10 15
17 17 16 17 17 19 17 17 16 17 17 17 18 18 18 19 19 17 17 17 18 18 17 17 16 17 15 14 13 12 12 9 9 8 10 9 8 8 9 12 11 12 13
16 16 16 17 17 18 18 19 18 18 18 18 18 19 19 19 19 18 17 17 18 16 19 18 18 18 16 14 11 12 15 14 11 11 14 16 17 17 17 16 15 14 15
17 18 18 18 19 19 20 21 20 19 18 19 19 18 18 19 19 19 20 13 12 11 10 9 13 17 10 9 8 7 7 6 6 10 20 20 18 17 16 17 16 16 15